This demonstration page uses our WeatherBlox Daily Observations layout. Learn more.

40.92945, -100.16068

Hourly Observations for November 20, 2020

Temp ( °F °C ) Dew Point ( °F °C ) Humidity (%) Winds ( mph kmh ) Pressure ( in mb ) Visibility ( mi km ) Precip ( " mm )
12:15 am 00:15 Clear 44 6.7 32 -0.1 62 62 N 8 13 30.24 1024 10 16.0934 0 0
12:35 am 00:35 Clear 42 5.7 31 -0.5 65 65 N 7 11 30.26 1025 10 16.0934 0 0
12:55 am 00:55 Clear 40 4.2 31 -0.8 70 70 N 8 13 30.28 1025 10 16.0934 0 0
1:15 am 01:15 Clear 38 3.5 30 -1.2 72 72 N 5 7 30.29 1026 10 16.0934 0 0
1:35 am 01:35 Clear 38 3.6 30 -1.2 71 71 N 6 9 30.3 1026 10 16.0934 0 0
1:55 am 01:55 Clear 35 1.6 28 -2.2 76 76 N 7 11 30.32 1027 10 16.0934 0 0
2:15 am 02:15 Clear 34 0.9 29 -1.7 83 83 NNW 7 11 30.33 1027 10 16.0934 0 0
2:35 am 02:35 Clear 34 1.3 29 -1.8 80 80 NW 8 13 30.33 1027 10 16.0934 0 0
2:55 am 02:55 Clear 32 0 27 -2.6 83 83 NNW 7 11 30.36 1028 10 16.0934 0 0
3:15 am 03:15 Clear 31 -0.3 27 -2.9 83 83 NW 3 6 30.37 1028 10 16.0934 0 0
3:35 am 03:35 Clear 31 -0.6 27 -3 84 84 NW 7 11 30.37 1029 10 16.0934 0 0
3:55 am 03:55 Clear 30 -0.9 26 -3.1 85 85 WNW 6 9 30.39 1029 10 16.0934 0 0
4:15 am 04:15 Clear 31 -0.8 27 -3 85 85 WNW 8 13 30.4 1029 10 16.0934 0 0
4:35 am 04:35 Clear 31 -0.7 27 -3 85 85 W 9 15 30.41 1030 10 16.0934 0 0
4:55 am 04:55 Clear 32 0 28 -2.5 83 83 W 8 13 30.41 1030 10 16.0934 0 0
5:15 am 05:15 Clear 30 -1 26 -3.2 85 85 W 6 9 30.43 1030 10 16.0934 0 0
5:35 am 05:35 Clear 31 -0.7 27 -3 85 85 WNW 8 13 30.44 1031 10 16.0934 0 0
5:55 am 05:55 Clear 33 0.3 28 -2 85 85 WNW 7 11 30.44 1031 10 16.0934 0 0
6:15 am 06:15 Clear 34 0.9 29 -1.6 84 84 W 6 9 30.43 1030 10 16.0934 0 0
6:35 am 06:35 Clear 33 0.8 29 -1.4 85 85 WNW 5 7 30.44 1031 10 16.0934 0 0
6:55 am 06:55 Clear 34 1 29 -1.5 84 84 WNW 7 11 30.45 1031 10 16.0934 0 0
7:15 am 07:15 Clear 32 0.1 29 -1.8 87 87 WNW 3 6 30.47 1032 10 16.0934 0 0
7:35 am 07:35 Sunny 32 -0.1 28 -2.3 85 85 WNW 6 9 30.48 1032 10 16.0934 0 0
7:55 am 07:55 Sunny 33 0.7 29 -1.5 85 85 WNW 8 13 30.49 1033 10 16.0934 0 0
8:15 am 08:15 Sunny 35 1.9 31 -0.8 83 83 WNW 7 11 30.49 1032 10 16.0934 0 0
8:35 am 08:35 Partly Cloudy 37 2.6 31 -0.3 81 81 NW 5 7 30.48 1032 10 16.0934 0 0
8:55 am 08:55 Partly Cloudy 38 3.4 32 0 79 79 NW 7 11 30.49 1033 10 16.0934 0 0
9:15 am 09:15 Sunny 38 3.6 32 -0.1 77 77 NNW 5 7 30.49 1033 10 16.0934 0 0
9:35 am 09:35 Sunny 40 4.6 32 0.1 73 73 NNW 6 9 30.48 1032 10 16.0934 0 0
9:55 am 09:55 Partly Cloudy 42 5.4 32 0.1 69 69 NNW 5 7 30.47 1032 10 16.0934 0 0
10:15 am 10:15 Sunny 43 6.3 32 0.2 65 65 NNW 6 9 30.47 1032 10 16.0934 0 0
10:35 am 10:35 Sunny 45 7 32 0.1 62 62 NNW 5 7 30.47 1032 10 16.0934 0 0
10:55 am 10:55 Sunny 46 7.6 32 0.2 60 60 NW 7 11 30.47 1032 10 16.0934 0 0
11:15 am 11:15 Sunny 47 8.1 32 0.2 58 58 NNW 6 9 30.46 1031 10 16.0934 0 0
11:35 am 11:35 Sunny 46 8 32 0.2 58 58 NW 5 7 30.46 1031 10 16.0934 0 0
11:55 am 11:55 Sunny 48 8.7 33 0.3 56 56 NW 5 7 30.45 1031 10 16.0934 0 0
12:15 pm 12:15 Sunny 49 9.5 32 0.1 52 52 Calm 30.44 1031 10 16.0934 0 0
12:35 pm 12:35 Sunny 51 10.3 32 0.1 50 50 Calm 30.42 1030 10 16.0934 0 0
12:55 pm 12:55 Sunny 51 10.8 31 -0.3 47 47 SSW 3 6 30.41 1030 10 16.0934 0 0
1:15 pm 13:15 Sunny 52 11.1 31 -0.6 45 45 Calm 30.4 1029 10 16.0934 0 0
1:35 pm 13:35 Sunny 52 11 30 -1.1 43 43 Calm 30.4 1030 10 16.0934 0 0
1:55 pm 13:55 Sunny 53 11.5 30 -1 42 42 Calm 30.4 1029 10 16.0934 0 0
2:15 pm 14:15 Sunny 54 12 30 -1.2 40 40 Calm 30.38 1029 10 16.0934 0 0
2:35 pm 14:35 Sunny 54 12 29 -1.5 39 39 NE 3 6 30.38 1029 10 16.0934 0 0
2:55 pm 14:55 Sunny 54 12.1 29 -1.9 38 38 Calm 30.38 1029 10 16.0934 0 0
3:15 pm 15:15 Sunny 54 12.2 28 -2 37 37 Calm 30.39 1029 10 16.0934 0 0
3:35 pm 15:35 Sunny 54 12.4 28 -2.3 36 36 Calm 30.39 1029 10 16.0934 0 0
3:55 pm 15:55 Sunny 55 12.5 28 -2.3 36 36 Calm 30.39 1029 10 16.0934 0 0
4:15 pm 16:15 Sunny 55 12.7 29 -1.9 37 37 Calm 30.39 1029 10 16.0934 0 0
4:35 pm 16:35 Sunny 54 12.3 29 -1.7 38 38 Calm 30.39 1029 10 16.0934 0 0
4:55 pm 16:55 Sunny 52 11.2 29 -1.8 41 41 Calm 30.41 1030 10 16.0934 0 0
5:15 pm 17:15 Sunny 50 10.2 28 -2.4 42 42 Calm 30.42 1030 10 16.0934 0 0
5:35 pm 17:35 Clear 49 9.3 29 -1.7 46 46 Calm 30.44 1031 10 16.0934 0 0
5:55 pm 17:55 Clear 48 8.9 29 -1.9 47 47 SE 6 9 30.43 1031 10 16.0934 0 0
6:15 pm 18:15 Clear 47 8.5 28 -2.2 47 47 ESE 7 11 30.45 1031 10 16.0934 0 0
6:35 pm 18:35 Clear 47 8.2 27 -2.7 46 46 SE 6 9 30.46 1031 10 16.0934 0 0
6:55 pm 18:55 Clear 46 7.7 27 -2.6 48 48 SE 5 7 30.46 1032 10 16.0934 0 0
7:15 pm 19:15 Clear 45 7 28 -2.4 52 52 ESE 3 6 30.48 1032 10 16.0934 0 0
7:35 pm 19:35 Clear 41 5.1 28 -2.1 60 60 SE 3 6 30.51 1033 10 16.0934 0 0
7:55 pm 19:55 Clear 44 6.4 28 -2.5 53 53 SSE 5 7 30.5 1033 10 16.0934 0 0
8:15 pm 20:15 Clear 41 4.8 28 -2.5 60 60 SE 5 7 30.51 1033 10 16.0934 0 0
8:35 pm 20:35 Clear 40 4.7 29 -1.9 63 63 Calm 30.52 1034 10 16.0934 0 0
8:55 pm 20:55 Clear 37 2.8 28 -2.2 70 70 NNE 3 6 30.54 1034 7 11.26538 0 0
9:15 pm 21:15 Clear 37 2.6 29 -1.8 73 73 Calm 30.55 1035 10 16.0934 0 0
9:35 pm 21:35 Clear 37 2.7 29 -1.6 74 74 Calm 30.55 1035 10 16.0934 0 0
9:55 pm 21:55 Clear 36 2.1 28 -2 75 75 N 6 9 30.56 1035 10 16.0934 0 0
10:15 pm 22:15 Clear 36 2.4 29 -1.5 76 76 Calm 30.55 1035 10 16.0934 0 0
10:35 pm 22:35 Mostly Cloudy 37 2.6 29 -1.6 74 74 Calm 30.56 1035 10 16.0934 0 0
10:55 pm 22:55 Mostly Cloudy 37 2.6 30 -1.3 76 76 Calm 30.56 1035 10 16.0934 0 0
11:15 pm 23:15 Clear 37 2.5 29 -1.4 76 76 Calm 30.55 1035 10 16.0934 0 0
11:35 pm 23:35 Mostly Cloudy 36 2.1 29 -1.5 77 77 N 3 6 30.56 1035 10 16.0934 0 0
11:55 pm 23:55 Cloudy 38 3.1 29 -1.7 71 71 NNE 8 13 30.56 1035 7 11.26538 0 0

Powered by AerisWeather